Location: Kawakawa
(35.3830°S, 174.0670°E)
Time: 21:35:42
(UTC+13:00)

Altair - Pass Details

Date: 09 December 2019
Orbit: 1502 x 1682 km, 47.2° (Epoch: 24 January)

Event Time Altitude Azimuth Distance (km) Brightness Sun altitude
Rises 07:33:29 0° 10° (N) 4,703 10.0 16.4°
Reaches altitude 10° 07:38:57 10° 35° (NE) 3,771 9.9 17.5°
Maximum altitude 07:42:43 13° 59° (ENE) 3,576 10.2 18.2°
Drops below altitude 10° 07:46:32 10° 83° (E) 3,842 11.1 19.0°
Sets 07:52:09 0° 108° (ESE) 4,878 11.8 20.1°
